WA8SIE Weather Reports


time (UTC)temp
C
wind
direction
speed
KPH
gust
KPH
rain 1hr
cm
rain 24hr
cm
rain mn
cm
humidity
%
barometer
mb
20260905180510 28 104 0.0 0.0 0.00 0.00 0.03 64 1008.4
20260905180011 28 115 0.0 0.0 0.00 0.00 0.03 66 1008.4
20260905175512 28 59 0.0 0.0 0.00 0.00 0.03 66 1008.8
20260905175011 28 59 0.0 0.0 0.00 0.00 0.03 66 1008.8
20260905174511 28 60 0.0 0.0 0.00 0.00 0.03 66 1008.8
20260905174011 28 33 0.0 0.0 0.00 0.00 0.03 70 1008.8
20260905173512 27 27 0.0 0.0 0.00 0.00 0.03 69 1008.8
20260905172510 27 0.0 0.0 0.00 0.00 0.03 70 1008.9
20260905172012 27 198 0.0 0.0 0.00 0.00 0.03 70 1008.9
20260905171512 27 97 0.0 0.0 0.00 0.00 0.03 71 1008.9
20260905171011 27 70 0.0 0.0 0.00 0.00 0.03 72 1008.9
20260905170510 26 70 0.0 6.4 0.00 0.00 0.03 76 1008.9
20260905170010 26 70 0.0 0.0 0.00 0.00 0.03 75 1008.9
20260905165511 26 56 0.0 0.0 0.00 0.00 0.03 75 1009.2
20260905164510 26 42 3.2 0.0 0.00 0.00 0.03 81 1009.2
20260905164010 25 100 0.0 8.0 0.00 0.00 0.03 79 1009.5
20260905163511 25 96 4.8 0.0 0.00 0.00 0.03 82 1009.5
20260905163012 25 104 0.0 0.0 0.00 0.00 0.03 86 1009.5
20260905162510 25 104 0.0 0.0 0.00 0.00 0.03 87 1009.8
20260905162010 25 104 1.6 0.0 0.00 0.00 0.03 88 1009.8
20260905161510 25 172 0.0 3.2 0.00 0.00 0.03 90 1009.8
20260905161010 24 173 0.0 0.0 0.00 0.00 0.03 91 1009.9
20260905160011 24 173 0.0 0.0 0.00 0.00 0.03 94 1009.9
20260905155512 24 173 0.0 0.0 0.00 0.00 0.03 92 1009.5
20260905155010 24 144 0.0 4.8 0.00 0.00 0.03 93 1009.5
20260905153510 23 179 0.0 0.0 0.00 0.00 0.03 93 1009.8
20260905153010 23 316 0.0 0.0 0.00 0.00 0.03 94 1009.8
20260905152510 23 318 0.0 0.0 0.00 0.00 0.03 93 1009.2
20260905152010 23 317 0.0 0.0 0.00 0.00 0.03 94 1009.2
20260905151512 23 318 0.0 0.0 0.00 0.00 0.03 94 1009.2
20260905151010 23 200 0.0 0.0 0.00 0.00 0.03 94 1008.8
20260905150010 23 251 0.0 9.7 0.00 0.00 0.03 95 1008.8
20260905145010 23 132 0.0 0.0 0.00 0.00 0.03 98 1008.7
20260905144510 23 132 0.0 0.0 0.00 0.00 0.03 98 1008.7
20260905144012 23 132 0.0 0.0 0.00 0.00 0.03 98 1008.9
20260905143012 23 188 0.0 0.0 0.00 0.00 0.03 98 1008.9
20260905142510 23 169 0.0 0.0 0.00 0.00 0.03 99 1009.5
20260905141511 23 104 3.2 0.0 0.00 0.00 0.03 99 1009.5
20260905141011 22 66 0.0 3.2 0.00 0.00 0.03 99 1010.0
20260905140511 22 66 0.0 0.0 0.00 0.00 0.03 99 1010.0
20260905140011 22 67 1.6 0.0 0.00 0.00 0.03 99 1010.0
20260905135511 22 66 0.0 0.0 0.00 0.00 0.03 99 1010.6
20260905135011 22 66 0.0 0.0 0.00 0.00 0.03 98 1010.6
20260905134511 22 65 0.0 0.0 0.00 0.00 0.03 98 1010.6
20260905134011 22 66 0.0 0.0 0.00 0.00 0.03 97 1010.4
20260905133011 22 66 0.0 0.0 0.00 0.00 0.03 95 1010.4
20260905132511 22 66 0.0 0.0 0.00 0.00 0.03 93 1010.8
20260905132013 22 1 0.0 6.4 0.00 0.00 0.00 93 1010.8
20260905131511 22 1 0.0 0.0 0.00 0.00 0.00 92 1010.8
20260905130011 22 107 0.0 0.0 0.00 0.00 0.00 93 1010.5
20260905125011 22 58 0.0 0.0 0.00 0.00 0.00 93 1010.5
20260905124511 22 58 0.0 0.0 0.00 0.00 0.00 94 1010.5
20260905124013 23 69 0.0 0.0 0.00 0.00 0.00 94 1010.4
20260905123511 22 297 0.0 0.0 0.00 0.00 0.00 95 1010.4
20260905123011 22 13 0.0 17.7 0.00 0.00 0.00 97 1010.4
20260905121511 22 273 0.0 0.0 0.00 0.00 0.00 100 1010.5
20260905121011 22 176 3.2 0.0 0.00 0.00 0.00 100 1009.0
20260905120511 22 176 0.0 0.0 0.00 0.00 0.00 100 1009.0
20260905120011 22 176 0.0 0.0 0.00 0.00 0.00 100 1009.0
20260905115512 22 176 0.0 0.0 0.00 0.00 0.00 100 1008.8
20260905115010 22 176 0.0 0.0 0.00 0.00 0.00 100 1008.8
20260905114011 22 330 8.0 17.7 0.00 0.00 0.00 100 1007.8
20260905113511 22 295 6.4 0.0 0.00 0.00 0.00 100 1007.8
20260905113011 22 132 0.0 0.0 0.00 0.00 0.00 100 1007.8
20260905111511 22 132 0.0 0.0 0.00 0.00 0.00 100 1007.8
20260905111011 22 131 0.0 0.0 0.00 0.00 0.00 100 1007.7
20260905110511 22 131 0.0 0.0 0.00 0.00 0.00 100 1007.7
20260905110011 22 131 0.0 0.0 0.00 0.00 0.00 100 1007.7
20260905104011 22 131 0.0 0.0 0.00 0.00 0.00 100 1007.7
20260905103512 22 132 0.0 0.0 0.00 0.00 0.00 100 1007.7
20260905103011 22 131 0.0 0.0 0.00 0.00 0.00 100 1007.7
20260905102514 22 132 0.0 0.0 0.00 0.00 0.00 100 1007.7
20260905102011 22 132 0.0 0.0 0.00 0.00 0.00 100 1007.7
20260905101011 22 131 0.0 0.0 0.00 0.00 0.00 100 1007.7
20260905100512 22 131 0.0 0.0 0.00 0.00 0.00 100 1007.7
20260905100011 22 132 0.0 0.0 0.00 0.00 0.00 100 1007.7
20260905095510 22 132 0.0 0.0 0.00 0.00 0.00 100 1007.7
20260905095011 22 132 0.0 0.0 0.00 0.00 0.00 100 1007.7
20260905094512 22 132 0.0 0.0 0.00 0.00 0.00 100 1007.7
20260905094011 22 132 0.0 0.0 0.00 0.00 0.00 100 1007.7
20260905093010 22 131 0.0 0.0 0.00 0.00 0.00 100 1007.7
20260905092010 22 132 0.0 0.0 0.00 0.00 0.00 100 1007.8
20260905091511 22 132 0.0 0.0 0.00 0.00 0.00 100 1007.8
20260905091010 22 132 0.0 0.0 0.00 0.00 0.00 100 1007.6
20260905090510 22 132 0.0 0.0 0.00 0.00 0.00 100 1007.6
20260905090010 22 132 0.0 0.0 0.00 0.00 0.00 100 1007.6
20260905085511 22 132 0.0 0.0 0.00 0.00 0.00 100 1007.4
20260905085010 22 132 0.0 0.0 0.00 0.00 0.00 100 1007.4
20260905084511 22 132 0.0 0.0 0.00 0.00 0.00 100 1007.4
20260905084012 22 132 0.0 0.0 0.00 0.00 0.00 100 1007.6
20260905083510 22 132 0.0 0.0 0.00 0.00 0.00 100 1007.6
20260905082511 22 133 0.0 0.0 0.00 0.00 0.00 100 1007.4
20260905082010 22 132 0.0 0.0 0.00 0.00 0.00 100 1007.4
20260905081510 22 132 0.0 0.0 0.00 0.00 0.00 100 1007.4
20260905081010 22 132 0.0 0.0 0.00 0.00 0.00 100 1007.4
20260905080510 22 131 0.0 0.0 0.00 0.00 0.00 100 1007.4
20260905080011 22 131 0.0 0.0 0.00 0.00 0.00 100 1007.4
20260905075510 22 132 0.0 0.0 0.00 0.00 0.00 100 1007.6
20260905075010 22 132 0.0 0.0 0.00 0.00 0.00 100 1007.6
20260905074511 22 132 0.0 0.0 0.00 0.00 0.00 100 1007.6
20260905074011 22 132 0.0 0.0 0.00 0.00 0.00 100 1007.6
20260905073010 22 131 0.0 0.0 0.00 0.00 0.00 100 1007.6
20260905072010 22 132 0.0 0.0 0.00 0.00 0.00 100 1007.9
20260905071011 22 131 1.6 0.0 0.00 0.00 0.00 100 1008.2
20260905070010 22 132 0.0 0.0 0.00 0.00 0.00 100 1008.2
20260905065510 22 132 0.0 0.0 0.00 0.00 0.00 100 1008.5
20260905064511 22 132 0.0 0.0 0.00 0.00 0.00 100 1008.5
20260905064011 22 132 0.0 0.0 0.00 0.00 0.00 100 1008.7
20260905063511 22 131 0.0 0.0 0.00 0.00 0.00 100 1008.7
20260905063011 22 133 0.0 0.0 0.00 0.00 0.00 100 1008.7
20260905061510 22 133 0.0 0.0 0.00 0.00 0.00 100 1009.2
20260905061011 23 132 0.0 0.0 0.00 0.00 0.00 100 1009.2
20260905055513 23 132 0.0 0.0 0.00 0.00 0.00 100 1009.2
20260905055013 23 131 0.0 0.0 0.00 0.00 0.00 100 1009.2
20260905054513 23 132 0.0 0.0 0.00 0.00 0.00 100 1009.2
20260905053511 23 131 0.0 0.0 0.00 0.00 0.00 100 1009.4
20260905053011 23 132 0.0 0.0 0.00 0.00 0.00 100 1009.4
20260905052511 23 132 0.0 0.0 0.00 0.00 0.00 100 1009.6
20260905052011 23 132 0.0 0.0 0.00 0.00 0.00 100 1009.6
20260905051011 23 133 0.0 0.0 0.00 0.00 0.00 100 1009.6
20260905050511 23 132 0.0 0.0 0.00 0.00 0.00 100 1009.6
20260905050013 23 132 0.0 0.0 0.00 0.00 0.00 100 1009.6
20260905045511 23 132 0.0 0.0 0.00 0.00 0.00 100 1009.7
20260905045011 23 131 0.0 0.0 0.00 0.00 0.00 100 1009.7
20260905044511 23 132 0.0 0.0 0.00 0.00 0.00 100 1009.7
20260905044011 23 132 0.0 0.0 0.00 0.00 0.00 100 1009.7
20260905043511 23 131 0.0 0.0 0.00 0.00 0.00 100 1009.7
20260905043011 23 132 0.0 0.0 0.00 0.00 0.00 100 1009.7
20260905042511 23 131 0.0 0.0 0.00 0.00 0.00 100 1009.7
20260905042011 23 131 0.0 0.0 0.00 0.00 0.00 100 1009.7
20260905041511 23 133 0.0 0.0 0.00 0.00 0.00 100 1009.7
20260905041012 23 131 0.0 0.0 0.00 0.00 0.00 100 1009.7
20260905040011 23 132 0.0 0.0 0.00 0.00 0.00 99 1009.7
20260905035511 23 132 0.0 0.0 0.00 0.00 0.00 99 1009.5
20260905035013 23 133 0.0 0.0 0.00 0.00 0.00 99 1009.5
20260905034511 23 132 0.0 0.0 0.00 0.00 0.00 99 1009.5
20260905034011 23 132 0.0 0.0 0.00 0.00 0.00 98 1009.4
20260905033511 23 133 0.0 0.0 0.00 0.00 0.00 98 1009.4
20260905033011 24 132 0.0 0.0 0.00 0.00 0.00 98 1009.4
20260905032511 24 132 0.0 0.0 0.00 0.00 0.00 98 1009.2
20260905032011 24 132 0.0 0.0 0.00 0.00 0.00 97 1009.2
20260905031511 24 132 0.0 0.0 0.00 0.00 0.00 97 1009.2
20260905030511 24 132 0.0 0.0 0.00 0.00 0.00 97 1009.5
20260905030010 24 132 0.0 0.0 0.00 0.00 0.00 97 1009.5
20260905024511 24 132 0.0 0.0 0.00 0.00 0.00 96 1009.3
20260905024011 25 132 0.0 0.0 0.00 0.00 0.00 96 1009.3
20260905023511 25 131 0.0 0.0 0.00 0.00 0.00 96 1009.3
20260905023011 25 132 0.0 0.0 0.00 0.00 0.00 95 1009.3
20260905022510 25 132 0.0 0.0 0.00 0.00 0.00 95 1009.3
20260905022011 25 133 0.0 0.0 0.00 0.00 0.00 95 1009.3
20260905021511 25 132 0.0 0.0 0.00 0.00 0.00 95 1009.3
20260905021011 25 132 0.0 0.0 0.00 0.00 0.00 94 1009.3
20260905020510 25 132 0.0 0.0 0.00 0.00 0.00 94 1009.3
20260905015510 25 133 0.0 0.0 0.00 0.00 0.00 94 1009.5
20260905015011 25 131 0.0 0.0 0.00 0.00 0.00 93 1009.5
20260905014510 25 132 0.0 0.0 0.00 0.00 0.00 93 1009.5
20260905014012 25 131 0.0 0.0 0.00 0.00 0.00 93 1009.3
20260905013010 25 132 0.0 0.0 0.00 0.00 0.00 92 1009.3
20260905012512 25 132 0.0 0.0 0.00 0.00 0.00 92 1009.3
20260905012010 25 132 0.0 0.0 0.00 0.00 0.00 92 1009.3
20260905011010 25 132 0.0 0.0 0.00 0.00 0.00 91 1009.0
20260905010510 25 132 0.0 0.0 0.00 0.00 0.00 91 1009.0
20260905010010 26 132 0.0 0.0 0.00 0.00 0.00 91 1009.0
20260905005511 26 132 0.0 0.0 0.00 0.00 0.00 90 1008.7
20260905005010 26 132 0.0 0.0 0.00 0.00 0.00 90 1008.7
20260905004510 26 132 0.0 0.0 0.00 0.00 0.00 88 1008.7
20260905004011 26 132 0.0 0.0 0.00 0.00 0.00 87 1008.1
20260905003010 26 132 0.0 0.0 0.00 0.00 0.00 86 1008.1
20260905002512 27 132 0.0 0.0 0.00 0.00 0.00 84 1007.5
20260905002010 27 132 0.0 0.0 0.00 0.00 0.00 83 1007.5
20260905001010 27 132 0.0 0.0 0.00 0.00 0.00 83 1007.6
20260905000510 27 132 0.0 0.0 0.00 0.00 0.00 82 1007.6
20260905000012 27 132 0.0 3.2 0.00 0.00 0.00 82 1007.6
20260904235510 27 132 0.0 0.0 0.00 0.00 0.00 82 1007.8
20260904235010 27 132 0.0 0.0 0.00 0.00 0.00 82 1007.8
20260904234510 27 132 0.0 0.0 0.00 0.00 0.00 82 1007.8
20260904234010 27 132 0.0 0.0 0.00 0.00 0.00 80 1008.1
20260904233510 27 132 0.0 3.2 0.00 0.00 0.00 78 1008.1
20260904233010 27 132 0.0 0.0 0.00 0.00 0.00 77 1008.1
20260904232510 27 103 0.0 0.0 0.00 0.00 0.00 77 1008.8
20260904231510 28 102 0.0 0.0 0.00 0.00 0.00 71 1008.8
20260904231010 28 103 0.0 0.0 0.00 0.00 0.00 73 1008.8
20260904230510 28 103 0.0 0.0 0.00 0.00 0.00 69 1008.8
20260904230010 28 103 0.0 0.0 0.00 0.00 0.00 69 1008.8
20260904225013 28 117 0.0 0.0 0.00 0.00 0.00 70 1008.9
20260904224511 28 141 0.0 6.4 0.00 0.00 0.00 70 1008.9
20260904224012 28 181 0.0 0.0 0.00 0.00 0.00 69 1009.3
20260904223511 28 199 0.0 0.0 0.00 0.00 0.00 70 1009.3
20260904223011 28 155 0.0 0.0 0.00 0.00 0.00 69 1009.3
20260904222511 28 116 1.6 0.0 0.00 0.00 0.00 69 1009.7
20260904222013 28 25 3.2 0.0 0.00 0.00 0.00 69 1009.7
20260904221511 29 26 0.0 0.0 0.00 0.00 0.00 69 1009.7
20260904221011 29 26 0.0 0.0 0.00 0.00 0.00 67 1009.8
20260904220011 29 161 0.0 0.0 0.00 0.00 0.00 68 1009.8
20260904215511 29 161 0.0 1.6 0.00 0.00 0.00 67 1009.7
20260904215011 29 55 0.0 0.0 0.00 0.00 0.00 67 1009.7
20260904214511 29 55 0.0 0.0 0.00 0.00 0.00 67 1009.7
20260904214011 29 55 0.0 0.0 0.00 0.00 0.00 67 1010.0
20260904213511 29 55 0.0 0.0 0.00 0.00 0.00 66 1010.0
20260904213011 29 41 0.0 1.6 0.00 0.00 0.00 67 1010.0
20260904212511 29 41 0.0 0.0 0.00 0.00 0.00 67 1009.8
20260904212011 29 41 0.0 0.0 0.00 0.00 0.00 67 1009.8
20260904211511 30 42 0.0 0.0 0.00 0.00 0.00 66 1009.8
20260904211011 30 41 0.0 0.0 0.00 0.00 0.00 66 1009.9
20260904210513 30 107 0.0 0.0 0.00 0.00 0.00 66 1009.9
20260904210012 30 115 0.0 0.0 0.00 0.00 0.00 66 1009.9
20260904205513 30 115 0.0 0.0 0.00 0.00 0.00 65 1009.5
20260904205011 30 115 0.0 0.0 0.00 0.00 0.00 65 1009.5
20260904204512 30 113 0.0 0.0 0.00 0.00 0.00 65 1009.5
20260904204011 31 240 0.0 8.0 0.00 0.00 0.00 64 1009.2
20260904203011 31 331 0.0 0.0 0.00 0.00 0.00 62 1009.2
20260904202511 31 331 0.0 0.0 0.00 0.00 0.00 61 1009.7
20260904202012 32 64 0.0 0.0 0.00 0.00 0.00 59 1009.7
20260904201511 33 50 0.0 17.7 0.00 0.00 0.00 55 1009.7
20260904201011 33 278 0.0 0.0 0.00 0.00 0.00 53 1009.1
20260904200511 33 194 0.0 0.0 0.00 0.00 0.00 50 1009.1
20260904200011 33 199 0.0 0.0 0.00 0.00 0.00 53 1009.1
20260904195511 33 199 0.0 0.0 0.00 0.00 0.00 53 1009.2
20260904195011 33 149 0.0 4.8 0.00 0.00 0.00 55 1009.2
20260904193511 32 176 0.0 0.0 0.00 0.00 0.00 56 1009.5
20260904192511 32 303 0.0 0.0 0.00 0.00 0.00 58 1009.2
20260904191511 32 186 0.0 0.0 0.00 0.00 0.00 59 1009.2
20260904191011 32 127 0.0 0.0 0.00 0.00 0.00 61 1010.1
20260904190510 32 122 1.6 0.0 0.00 0.00 0.00 62 1010.1
20260904190011 32 122 0.0 11.3 0.00 0.00 0.00 61 1010.1
20260904185512 32 278 0.0 0.0 0.00 0.00 0.00 59 1010.0
20260904185011 32 333 4.8 0.0 0.00 0.00 0.00 59 1010.0